Location: *
(45.8956°S, 173.8334°W)
Time: 17:53:46
(UTC+00:00)

Daily predictions for brighter satellites

Satellite Brightness Start Highest point End
(mag) Time Altitude Azimuth Time Altitude Azimuth Time Altitude Azimuth
Timation 1 Rocket 4.4 12:09:46 39° N 12:12:01 69° ENE 12:18:01 10° SSE
Cosmos 332 Rocket 3.8 12:13:51 47° N 12:15:10 72° ENE 12:20:02 10° SSE
Cosmos 1975 Rocket 3.1 12:10:48 10° SSW 12:15:13 64° W 12:16:04 51° NNW
SAR-Lupe-4 3.5 12:15:02 65° NE 12:15:29 77° ESE 12:19:08 10° S
ALOS 2 2.7 12:12:51 10° S 12:17:20 73° WSW 12:18:28 48° NW
Cosmos 2084 3.5 12:18:23 51° NNW 12:19:31 80° NE 12:24:18 10° SE
Cosmos 1825 2.2 12:16:51 10° SSW 12:20:25 58° W 12:20:28 57° W
CZ-2D R/B 2.2 12:22:49 32° NNE 12:25:31 83° ESE 12:31:06 10° SSW
Cosmos 1025 Rocket 4.1 12:23:31 10° SSW 12:27:23 30° W 12:28:02 29° WNW
Cosmos 1242 Rocket 4.4 12:26:01 10° SSE 12:28:43 23° ESE 12:30:09 17° ENE
Meteor 1-11 4.3 12:22:56 10° S 12:28:49 82° E 12:31:39 31° NNE
Cosmos 1315 Rocket 4.2 12:27:20 10° SW 12:30:42 25° W 12:30:57 25° W
Cosmos 371 Rocket 4.5 12:29:28 23° WNW 12:31:44 35° WSW 12:36:17 10° S
Cosmos 1538 Rocket 4.5 12:26:41 10° SSW 12:31:52 46° WNW 12:33:19 37° NW
Cosmos 2333 4.2 12:26:24 10° SSW 12:32:07 87° ESE 12:35:29 26° NNE
Okean 1 Rocket 4.4 12:31:24 23° NE 12:33:20 33° E 12:37:20 10° SSE
MSX 3.8 12:30:51 30° NNE 12:33:53 88° E 12:39:45 10° SSW
Cosmos 1536 Rocket 4.0 12:30:07 10° S 12:34:37 57° ESE 12:36:39 30° NE
Sich 1 Rocket 3.9 12:33:44 38° NNE 12:35:20 63° E 12:39:57 10° SSE
SAR-Lupe-1 4.1 12:36:20 57° NW 12:36:38 60° W 12:40:17 10° SSW
IDEFIX/ARIANE 42P 2.5 12:35:56 36° N 12:38:10 76° WNW 12:43:33 10° SSW
Helios 1A Rocket 3.0 12:34:14 10° SSE 12:38:11 64° ENE 12:39:07 47° NNE
SL-27 R/B 2.4 12:38:32 58° ENE 12:38:32 58° ENE 12:41:36 10° SSE
Okean 2 Rocket 3.2 12:39:07 40° NNE 12:40:36 67° E 12:45:04 10° SSE
ADEOS II 2.2 12:39:03 26° NNE 12:42:06 75° ESE 12:47:26 10° S
Meteor 1-4 Rocket 3.0 12:42:37 10° SSW 12:45:27 39° W 12:45:27 39° W
COSMOS 2441 4.4 12:46:07 28° NNE 12:48:44 77° ESE 12:53:38 10° S
Cosmos 2219 Rocket 2.2 12:43:46 10° SSW 12:49:28 87° ESE 12:53:31 20° NNE
Cosmos 2360 Rocket 2.5 12:44:04 10° SW 12:49:33 48° WNW 12:51:35 34° NNW
Cosmos 921 Rocket 3.1 12:47:56 10° SSW 12:52:11 72° ESE 12:54:19 28° NNE
Cosmos 2123 Rocket 4.3 12:49:44 24° NNE 12:53:31 61° E 12:59:40 10° SSE
Cosmos 1727 Rocket 4.2 12:51:05 31° NNW 12:54:11 64° W 13:00:31 10° S
Cosmos 1346 Rocket 4.0 12:53:28 24° NE 12:55:06 34° E 12:58:41 10° SSE
SL-8 R/B 4.0 12:50:30 10° W 12:55:22 67° S 13:00:13 10° ESE
In-Cosmos 22 Rocket 4.4 12:49:47 10° SSW 12:55:30 59° W 12:58:04 32° NNW
Cosmos 2173 Rocket 3.9 12:50:45 10° S 12:56:57 84° W 13:00:36 26° N
ALOS 3.3 12:57:47 12° NE 13:01:56 44° ESE 13:06:26 10° S
Cosmos 372 Rocket 4.0 12:59:42 34° NNW 13:01:59 76° WSW 13:07:09 10° SSE
AQUA 3.8 13:00:17 29° N 13:02:44 84° WNW 13:07:35 10° SSW
Cosmos 1455 3.6 13:02:52 23° W 13:03:36 24° WSW 13:06:41 10° SSW
Cosmos 1441 Rocket 3.1 13:04:48 44° NNW 13:05:54 76° WSW 13:09:46 10° S
Meteor 2-13 Rocket 4.4 13:07:10 26° N 13:10:48 83° E 13:16:59 10° S
Cosmos 1455 Rocket 4.4 13:09:11 16° NNE 13:12:05 33° E 13:16:02 10° SSE
ATLAS 5 CENTAUR R/B 2.5 13:06:11 10° SW 13:12:08 62° SE 13:16:51 10° NE
Cosmos 1937 Rocket 3.6 13:10:03 30° NW 13:12:34 64° WSW 13:17:46 10° SSE
Cosmos 2322 Rocket 3.4 13:08:35 10° SW 13:12:58 24° WNW 13:14:09 22° WNW
Cosmos 292 Rocket 3.8 13:11:41 31° N 13:14:00 76° ENE 13:18:53 10° SSE
GENESIS II 3.9 13:11:23 10° SW 13:15:02 77° NW 13:17:03 25° NNE
ISS -1.9 13:13:31 10° WSW 13:16:43 34° S 13:19:53 10° ESE
Cosmos 1898 Rocket 4.3 13:15:10 23° WNW 13:18:03 44° WSW 13:23:11 10° S
USA 308 2.8 13:17:20 10° SW 13:19:40 45° SSE 13:22:26 10° ENE
Resurs 1-4 Rocket 3.0 13:17:55 26° NW 13:19:47 33° W 13:24:36 10° SSW
CSL-04 DEB 4.5 13:18:43 24° NNE 13:21:15 86° WNW 13:25:35 10° SSW
Cosmos 2151 Rocket 4.2 13:19:37 29° NW 13:21:31 46° WSW 13:25:59 10° S
BREEZE M DEB (TANK) 3.0 13:20:52 10° WSW 13:22:56 44° SSE 13:26:07 10° E
FENGYUN 3A 3.6 13:20:28 21° N 13:24:09 75° WNW 13:29:38 10° SSW
CZ-4 R/B 3.9 13:20:35 16° NNE 13:24:15 78° ESE 13:29:00 10° SSW
Cosmos 2100 Rocket 4.3 13:18:27 10° SSW 13:24:27 50° W 13:28:00 24° NNW
USA 215 3.2 13:21:41 10° NE 13:28:12 64° NW 13:34:48 10° SW
Thor Agena Rocket 3.8 13:25:39 10° NNE 13:30:48 73° ESE 13:36:06 10° S
CZ-2C R/B 3.7 13:29:39 10° NE 13:34:26 42° ESE 13:39:08 10° S
Cosmos 2297 Rocket 3.2 13:30:36 15° NNE 13:34:50 38° ENE 13:40:04 10° SE
Cosmos 1725 Rocket 4.1 13:30:50 10° SSW 13:37:12 69° W 13:42:08 17° N
Cosmos 1802 Rocket 4.2 13:32:28 10° SSW 13:38:42 55° W 13:42:59 20° NNW
Cosmos 1680 Rocket 4.2 13:34:32 10° SW 13:39:26 37° WNW 13:42:04 23° NNW
NOSS 0 Rocket 4.0 13:40:07 10° SSW 13:46:24 86° ESE 13:52:39 10° NNE
COSMOS 2428 2.7 13:43:11 10° SSW 13:48:51 63° WNW 13:54:26 10° N
Cosmos 2333 Rocket 3.6 13:45:16 10° SW 13:49:22 20° W 13:51:07 18° NW
Cosmos 1461 2.8 13:46:50 10° SW 13:51:06 76° NW 13:55:28 10° NNE
SL-24 R/B - RUBIN 2 4.0 13:50:42 20° NNW 13:54:32 75° ENE 13:59:28 10° SE
BREEZE-M DEB (TANK) 3.7 13:56:54 15° NNE 13:56:54 15° NNE 13:57:57 10° NNE
Cosmos 2058 4.2 13:53:06 10° S 13:57:02 40° ESE 14:00:57 10° NNE
IRS-1D 3.8 13:52:59 10° NNE 13:58:20 80° ESE 14:03:47 10° SSW
Cosmos 1048 Rocket 4.1 13:52:57 10° SSW 13:58:24 87° ESE 14:03:42 10° NNE
Cosmos 1242 Rocket 3.9 13:59:36 10° SW 14:02:03 19° W 14:02:45 18° WNW
Cosmos 2237 Rocket 2.5 13:57:05 10° SSW 14:02:51 71° ESE 14:08:33 10° NNE
CZ-2D R/B 4.0 14:04:07 13° WNW 14:06:12 15° W 14:09:19 10° SW
METEOR-M 4.1 14:03:26 10° NNE 14:08:49 82° WNW 14:14:17 10° SSW
Cosmos 2061 Rocket 4.3 14:02:54 10° SSW 14:08:55 50° W 14:14:24 13° NNW
FAST Rocket 4.3 14:06:10 10° SSW 14:09:18 52° W 14:10:55 20° NNW
Okean 1 Rocket 4.5 14:08:32 15° WNW 14:11:12 26° WSW 14:14:58 10° SSW
Cosmos 2228 4.5 14:10:33 10° NNE 14:14:24 34° E 14:18:19 10° SSE
Cosmos 1892 Rocket 4.0 14:10:27 10° SSW 14:14:46 46° W 14:18:29 13° NNW
USA 32 4.2 14:14:04 14° NNW 14:18:30 58° W 14:23:45 10° S
CZ-2C R/B 3.9 14:15:03 13° NNW 14:19:48 39° W 14:25:19 10° SSW
USA 305 4.3 14:19:30 10° SSW 14:20:38 14° SSE 14:21:43 10° SE
ADEOS II 3.8 14:19:56 12° WNW 14:22:19 16° W 14:25:30 10° SW
PAYLOAD A 3.8 14:17:53 10° NNE 14:22:36 80° WNW 14:27:27 10° SSW
USA 281 3.6 14:17:44 10° NE 14:24:16 71° ESE 14:30:53 10° SSW
USA 307 3.9 14:23:53 10° SW 14:25:46 23° SSE 14:27:35 10° E
Cosmos 2084 Rocket 3.7 14:24:45 10° SW 14:29:34 84° NW 14:34:18 10° NE
Cosmos 1125 Rocket 3.6 14:24:44 12° NNW 14:29:44 90° SW 14:35:04 10° SSE
Cosmos 2227 Rocket 2.7 14:25:51 10° N 14:31:25 60° ENE 14:37:04 10° SSE
Cosmos 2219 Rocket 3.9 14:29:37 10° WSW 14:32:35 15° W 14:35:09 11° NW
Geosat 4.4 14:29:26 10° NE 14:34:26 69° ESE 14:39:30 10° SSW
YAOGAN 6 2.3 14:31:34 10° N 14:34:56 76° WNW 14:38:24 10° SSW
ARIANE 5 R/B 4.4 14:30:50 10° NE 14:35:29 34° ESE 14:40:07 10° S
BREEZE-M DEB (TANK) 2.2 14:34:17 10° WSW 14:36:45 40° NNW 14:39:09 10° NE
CZ-2C R/B 4.0 14:32:12 10° SSE 14:37:30 40° E 14:42:46 10° NNE
SL-8 R/B 3.9 14:33:15 10° WSW 14:38:08 76° SSE 14:42:59 10° E
Cosmos 1869 4.3 14:34:58 10° NNE 14:38:49 46° E 14:42:43 10° SSE
CBERS-1 4.2 14:33:43 10° NNE 14:38:51 83° ESE 14:44:03 10° SSW
ALOS 3.6 14:36:09 12° NW 14:39:24 22° W 14:43:05 10° SW
Envisat 3.2 14:35:00 10° N 14:40:00 55° W 14:45:05 10° SSW
Meteor 2-3 Rocket 4.5 14:35:55 10° S 14:41:40 59° ESE 14:47:16 10° NNE
MOZ.5/SAFIR/RUBIN 5/SL-8 4.5 14:39:37 10° S 14:44:02 41° WSW 14:48:23 10° NW
USA 306 2.9 14:41:20 10° SW 14:44:58 69° SSE 14:48:48 10° ENE
USA 276 2.1 14:44:05 11° WNW 14:47:02 70° NNE 14:50:06 10° ESE
Lacrosse 5 4.4 14:47:16 10° NE 14:49:08 12° ENE 14:51:00 10° E
Cosmos 1455 Rocket 4.4 14:46:19 10° NW 14:49:55 24° WSW 14:53:32 10° SSW
Cosmos 1174 4.3 14:45:21 10° NW 14:50:46 84° WSW 14:55:06 10° SSE
Meteor 1-28 Rocket 3.5 14:47:55 10° SSE 14:51:35 64° ENE 14:55:11 10° N
NOAA 11 4.4 14:47:08 10° N 14:52:34 57° W 14:58:04 10° SSW
USA 308 3.2 14:51:20 10° W 14:53:26 20° NW 14:55:47 10° N
ISS -3.8 14:50:15 10° WSW 14:53:41 78° NNW 14:57:05 10° NE
ATLAS 5 CENTAUR R/B 3.1 14:51:34 10° WSW 14:55:37 22° WNW 14:59:07 10° NNW
SL-16 R/B 3.0 14:52:12 10° SSE 14:58:25 63° ENE 15:04:32 10° N
BREEZE-M DEB (TANK) 4.0 14:54:21 10° NW 15:00:11 37° NNE 15:03:09 10° E
Cosmos 1484 Rocket 2.7 14:57:00 10° NNE 15:00:41 87° ESE 15:04:24 10° SSW
Cosmos 2285 Rocket 4.1 14:54:36 10° SSW 15:00:53 64° WNW 15:07:06 10° N
SL-16 R/B 2.8 14:56:27 10° SSW 15:02:11 67° ESE 15:07:52 10° NE
Cosmos 1758 Rocket 3.6 14:58:00 10° SSW 15:02:32 70° W 15:06:56 10° N
Okean 1-7 Rocket 3.8 14:59:32 10° SSW 15:04:04 59° W 15:08:28 10° N
Cosmos 1464 Rocket 4.1 15:00:42 10° SSW 15:06:52 65° W 15:12:55 10° N
